[TLELIST] Archives

 

[TLELIST] Current TLEs

July 8th 2026 PDT

0 HST 1 20580U 90037B 26188.74350551 .00004421 00000-0 13593-3 0 9994 2 20580 28.4736 300.0580 0001929 32.3294 327.7420 15.31004191791723 0 ISS (ZARYA) 1 25544U 98067A 26189.15353387 .00005161 00000-0 10196-3 0 9994 2 25544 51.6304 196.3226 0006696 270.4034 89.6187 15.48940380575005 0 CXO 1 25867U 99040B 26190.53346781 .00000720 00000-0 00000-0 0 9994 2 25867 56.4882 116.0417 7806470 310.0470 0.4589 0.37804829 17409 ...Continue Reading

[TLELIST] Current TLEs

July 7th 2026 PDT

0 HST 1 20580U 90037B 26187.43980133 .00005846 00000-0 18213-3 0 9990 2 20580 28.4736 308.9719 0001830 18.2005 341.8656 15.30991511791524 0 ISS (ZARYA) 1 25544U 98067A 26188.18576601 .00005994 00000-0 11712-3 0 9991 2 25544 51.6305 201.1096 0006690 265.7165 94.3058 15.48929707574854 0 CXO 1 25867U 99040B 26190.53346780 .00000720 00000-0 00000+0 0 9992 2 25867 56.4882 116.0417 7806470 310.0470 0.4589 0.37804829 17409 ...Continue Reading

[TLELIST] Current TLEs

July 6th 2026 PDT

0 HST 1 20580U 90037B 26186.72275928 .00008052 00000-0 25363-3 0 9996 2 20580 28.4737 313.8746 0001801 10.5511 349.5122 15.30983298791419 0 ISS (ZARYA) 1 25544U 98067A 26187.08895395 .00007119 00000-0 13761-3 0 9990 2 25544 51.6304 206.5355 0006733 261.2547 98.7678 15.48915600574687 0 CXO 1 25867U 99040B 26190.53249962 .00000720 00000-0 00000-0 0 9997 2 25867 56.4883 116.0416 7806469 310.0470 0.3268 0.37805019 17402 ...Continue Reading

[TLELIST] Current TLEs

July 5th 2026 PDT

0 HST 1 20580U 90037B 26185.74496647 .00010489 00000-0 33264-3 0 9996 2 20580 28.4738 320.5598 0001726 359.9389 0.1206 15.30968798791263 0 ISS (ZARYA) 1 25544U 98067A 26186.12116982 .00009813 00000-0 18661-3 0 9999 2 25544 51.6302 211.3234 0006740 257.5366 102.4869 15.48901138574530 0 CXO 1 25867U 99040B 26187.88935528 .00000762 00000-0 00000-0 0 9997 2 25867 56.4267 116.1509 7809224 310.0350 0.5660 0.37802688 17396 ...Continue Reading

[TLELIST] Current TLEs

July 4th 2026 PDT

0 HST 1 20580U 90037B 26185.09309830 .00008649 00000-0 27319-3 0 9990 2 20580 28.4737 325.0166 0001697 352.4976 7.5595 15.30955000791163 0 ISS (ZARYA) 1 25544U 98067A 26185.08885440 .00007564 00000-0 14587-3 0 9999 2 25544 51.6303 216.4301 0006763 253.0749 106.9498 15.48879284574378 0 CXO 1 25867U 99040B 26187.88935528 .00000762 00000-0 00000-0 0 9997 2 25867 56.4267 116.1509 7809224 310.0350 0.5660 0.37802688 17396 ...Continue Reading

[TLELIST] Current TLEs

July 3rd 2026 PDT

0 HST 1 20580U 90037B 26183.72415950 .00007907 00000-0 24931-3 0 9992 2 20580 28.4736 334.3758 0001625 336.7387 23.3136 15.30934799790959 0 ISS (ZARYA) 1 25544U 98067A 26182.50817465 .00006185 00000-0 11827-3 0 9997 2 25544 51.6311 229.1989 0004224 255.0896 104.9625 15.49503254573972 0 CXO 1 25867U 99040B 26185.24501744 .00000765 00000-0 00000+0 0 9996 2 25867 56.3727 116.2458 7810468 310.0498 0.5720 0.37797064 17382 ...Continue Reading

[TLELIST] Current TLEs

July 2nd 2026 PDT

0 HST 1 20580U 90037B 26183.13746576 .00008151 00000-0 25728-3 0 9995 2 20580 28.4736 338.3859 0001559 329.1598 30.8906 15.30927115790863 0 ISS (ZARYA) 1 25544U 98067A 26182.50817465 .00006185 00000-0 11827-3 0 9997 2 25544 51.6311 229.1989 0004224 255.0896 104.9625 15.49503254573972 0 CXO 1 25867U 99040B 26185.24501744 .00000765 00000-0 00000+0 0 9996 2 25867 56.3727 116.2458 7810468 310.0498 0.5720 0.37797064 17382 ...Continue Reading

[TLELIST] Current TLEs

July 1st 2026 PDT

0 HST 1 20580U 90037B 26182.15963632 .00008219 00000-0 25961-3 0 9994 2 20580 28.4735 345.0705 0001499 316.6330 43.4148 15.30913500790710 0 ISS (ZARYA) 1 25544U 98067A 26182.12120860 .00006925 00000-0 13146-3 0 9999 2 25544 51.6311 231.1150 0004254 253.5517 106.5005 15.49499881573915 0 CXO 1 25867U 99040B 26182.60009460 .00000698 00000-0 00000-0 0 9997 2 25867 56.3386 116.3110 7812275 310.0948 0.4515 0.37794011 17376 ...Continue Reading

[TLELIST] Current TLEs

June 30th 2026 PDT

0 HST 1 20580U 90037B 26179.87800082 .00006406 00000-0 20097-3 0 9999 2 20580 28.4733 0.6674 0001411 286.0347 74.0094 15.30881351790368 0 ISS (ZARYA) 1 25544U 98067A 26180.50883825 .00005660 00000-0 10902-3 0 9998 2 25544 51.6320 239.0980 0004278 246.9974 113.0563 15.49477794573665 0 CXO 1 25867U 99040B 26182.60009460 .00000698 00000-0 00000-0 0 9997 2 25867 56.3386 116.3110 7812275 310.0948 0.4515 0.37794011 17376 ...Continue Reading

[TLELIST] Current TLEs

June 29th 2026 PDT

0 HST 1 20580U 90037B 26179.87800082 .00006406 00000-0 20097-3 0 9999 2 20580 28.4733 0.6674 0001411 286.0347 74.0094 15.30881351790368 0 ISS (ZARYA) 1 25544U 98067A 26179.67039743 .00005693 00000-0 10963-3 0 9999 2 25544 51.6320 243.2491 0004268 243.5322 116.5229 15.49468267573536 0 CXO 1 25867U 99040B 26182.60009460 .00000698 00000-0 00000-0 0 9997 2 25867 56.3386 116.3110 7812275 310.0948 0.4515 0.37794011 17376 ...Continue Reading
  • This mailing list is a public mailing list - anyone may join or leave, at any time.
  • This mailing list is announce-only.

International Space Station (ISS) / Hubble Space Telescope (HST) / Chandra X-Ray Observatory Orbital Data via EMAIL

Privacy Policy:

Private list